Year,Month,Day,Hour,Minute,Value (Times are PST for temperature in C)
2020,11,05,00,00,10.50
2020,11,05,00,01,10.50
2020,11,05,00,02,10.40
2020,11,05,00,03,10.40
2020,11,05,00,04,10.40
2020,11,05,00,05,10.40
2020,11,05,00,06,10.40
2020,11,05,00,07,10.40
2020,11,05,00,08,10.40
2020,11,05,00,09,10.40
2020,11,05,00,10,10.40
2020,11,05,00,11,10.30
2020,11,05,00,12,10.30
2020,11,05,00,13,10.30
2020,11,05,00,14,10.30
2020,11,05,00,15,10.30
2020,11,05,00,16,10.30
2020,11,05,00,17,10.30
2020,11,05,00,18,10.30
2020,11,05,00,19,10.30
2020,11,05,00,20,10.30
2020,11,05,00,21,10.30
2020,11,05,00,22,10.30
2020,11,05,00,23,10.30
2020,11,05,00,24,10.30
2020,11,05,00,25,10.30
2020,11,05,00,26,10.30
2020,11,05,00,27,10.30
2020,11,05,00,28,10.30
2020,11,05,00,29,10.30
2020,11,05,00,30,10.30
2020,11,05,00,31,10.30
2020,11,05,00,32,10.20
2020,11,05,00,33,10.20
2020,11,05,00,34,10.20
2020,11,05,00,35,10.20
2020,11,05,00,36,10.20
2020,11,05,00,37,10.20
2020,11,05,00,38,10.20
2020,11,05,00,39,10.20
2020,11,05,00,40,10.10
2020,11,05,00,41,10.10
2020,11,05,00,42,10.10
2020,11,05,00,43,10.10
2020,11,05,00,44,10.10
2020,11,05,00,45,10.10
2020,11,05,00,46,10.10
2020,11,05,00,47,10.10
2020,11,05,00,48,10.10
2020,11,05,00,49,10.10
2020,11,05,00,50,10.10
2020,11,05,00,51,10.10
2020,11,05,00,52,10.10
2020,11,05,00,53,10.00
2020,11,05,00,54,10.00
2020,11,05,00,55,10.00
2020,11,05,00,56,10.00
2020,11,05,00,57,10.00
2020,11,05,00,58,10.00
2020,11,05,00,59,10.00
2020,11,05,01,00,10.00
2020,11,05,01,01,10.00
2020,11,05,01,02,10.00
2020,11,05,01,03,10.00
2020,11,05,01,04,10.00
2020,11,05,01,05,10.00
2020,11,05,01,06,10.00
2020,11,05,01,07,10.00
2020,11,05,01,08,10.00
2020,11,05,01,09,9.90
2020,11,05,01,10,9.90
2020,11,05,01,11,9.90
2020,11,05,01,12,9.90
2020,11,05,01,13,9.90
2020,11,05,01,14,9.90
2020,11,05,01,15,9.90
2020,11,05,01,16,9.90
2020,11,05,01,17,9.90
2020,11,05,01,18,9.90
2020,11,05,01,19,9.80
2020,11,05,01,20,9.80
2020,11,05,01,21,9.80
2020,11,05,01,22,9.80
2020,11,05,01,23,9.80
2020,11,05,01,24,9.80
2020,11,05,01,25,9.80
2020,11,05,01,26,9.80
2020,11,05,01,27,9.80
2020,11,05,01,28,9.80
2020,11,05,01,29,9.80
2020,11,05,01,30,9.80
2020,11,05,01,31,9.80
2020,11,05,01,32,9.80
2020,11,05,01,33,9.80
2020,11,05,01,34,9.80
2020,11,05,01,35,9.80
2020,11,05,01,36,9.70
2020,11,05,01,37,9.70
2020,11,05,01,38,9.70
2020,11,05,01,39,9.70
2020,11,05,01,40,9.70
2020,11,05,01,41,9.70
2020,11,05,01,42,9.70
2020,11,05,01,43,9.80
2020,11,05,01,44,9.80
2020,11,05,01,45,9.80
2020,11,05,01,46,9.80
2020,11,05,01,47,9.80
2020,11,05,01,48,9.80
2020,11,05,01,49,9.80
2020,11,05,01,50,9.80
2020,11,05,01,51,9.80
2020,11,05,01,52,9.70
2020,11,05,01,53,9.70
2020,11,05,01,54,9.70
2020,11,05,01,55,9.70
2020,11,05,01,56,9.70
2020,11,05,01,57,9.70
2020,11,05,01,58,9.70
2020,11,05,01,59,9.60
2020,11,05,02,00,9.60
2020,11,05,02,01,9.60
2020,11,05,02,02,9.60
2020,11,05,02,03,9.60
2020,11,05,02,04,9.60
2020,11,05,02,05,9.60
2020,11,05,02,06,9.60
2020,11,05,02,07,9.60
2020,11,05,02,08,9.60
2020,11,05,02,09,9.60
2020,11,05,02,10,9.60
2020,11,05,02,11,9.60
2020,11,05,02,12,9.60
2020,11,05,02,13,9.60
2020,11,05,02,14,9.60
2020,11,05,02,15,9.50
2020,11,05,02,16,9.50
2020,11,05,02,17,9.50
2020,11,05,02,18,9.50
2020,11,05,02,19,9.40
2020,11,05,02,20,9.40
2020,11,05,02,21,9.40
2020,11,05,02,22,9.40
2020,11,05,02,23,9.40
2020,11,05,02,24,9.40
2020,11,05,02,25,9.40
2020,11,05,02,26,9.40
2020,11,05,02,27,9.40
2020,11,05,02,28,9.40
2020,11,05,02,29,9.40
2020,11,05,02,30,9.40
2020,11,05,02,31,9.30
2020,11,05,02,32,9.30
2020,11,05,02,33,9.30
2020,11,05,02,34,9.30
2020,11,05,02,35,9.30
2020,11,05,02,36,9.30
2020,11,05,02,37,9.30
2020,11,05,02,38,9.30
2020,11,05,02,39,9.30
2020,11,05,02,40,9.30
2020,11,05,02,41,9.30
2020,11,05,02,42,9.30
2020,11,05,02,43,9.30
2020,11,05,02,44,9.30
2020,11,05,02,45,9.30
2020,11,05,02,46,9.30
2020,11,05,02,47,9.30
2020,11,05,02,48,9.40
2020,11,05,02,49,9.40
2020,11,05,02,50,9.40
2020,11,05,02,51,9.40
2020,11,05,02,52,9.40
2020,11,05,02,53,9.50
2020,11,05,02,54,9.50
2020,11,05,02,55,9.60
2020,11,05,02,56,9.60
2020,11,05,02,57,9.60
2020,11,05,02,58,9.60
2020,11,05,02,59,9.60
2020,11,05,03,00,9.60
2020,11,05,03,01,9.60
2020,11,05,03,02,9.60
2020,11,05,03,03,9.60
2020,11,05,03,04,9.60
2020,11,05,03,05,9.50
2020,11,05,03,06,9.50
2020,11,05,03,07,9.50
2020,11,05,03,08,9.40
2020,11,05,03,09,9.40
2020,11,05,03,10,9.40
2020,11,05,03,11,9.40
2020,11,05,03,12,9.40
2020,11,05,03,13,9.40
2020,11,05,03,14,9.40
2020,11,05,03,15,9.40
2020,11,05,03,16,9.40
2020,11,05,03,17,9.30
2020,11,05,03,18,9.30
2020,11,05,03,19,9.30
2020,11,05,03,20,9.30
2020,11,05,03,21,9.30
2020,11,05,03,22,9.30
2020,11,05,03,23,9.30
2020,11,05,03,24,9.30
2020,11,05,03,25,9.30
2020,11,05,03,26,9.20
2020,11,05,03,27,9.20
2020,11,05,03,28,9.20
2020,11,05,03,29,9.20
2020,11,05,03,30,9.20
2020,11,05,03,31,9.20
2020,11,05,03,32,9.20
2020,11,05,03,33,9.10
2020,11,05,03,34,9.10
2020,11,05,03,35,9.10
2020,11,05,03,36,9.10
2020,11,05,03,37,9.10
2020,11,05,03,38,9.10
2020,11,05,03,39,9.10
2020,11,05,03,40,9.10
2020,11,05,03,41,9.10
2020,11,05,03,42,9.10
2020,11,05,03,43,9.10
2020,11,05,03,44,9.10
2020,11,05,03,45,9.00
2020,11,05,03,46,9.10
2020,11,05,03,47,9.10
2020,11,05,03,48,9.10
2020,11,05,03,49,9.10
2020,11,05,03,50,9.10
2020,11,05,03,51,9.10
2020,11,05,03,52,9.10
2020,11,05,03,53,9.10
2020,11,05,03,54,9.00
2020,11,05,03,55,9.00
2020,11,05,03,56,9.10
2020,11,05,03,57,9.10
2020,11,05,03,58,9.10
2020,11,05,03,59,9.10
2020,11,05,04,00,9.10
2020,11,05,04,01,9.10
2020,11,05,04,02,9.10
2020,11,05,04,03,9.10
2020,11,05,04,04,9.10
2020,11,05,04,05,9.10
2020,11,05,04,06,9.10
2020,11,05,04,07,9.10
2020,11,05,04,08,9.10
2020,11,05,04,09,9.20
2020,11,05,04,10,9.20
2020,11,05,04,11,9.20
2020,11,05,04,12,9.20
2020,11,05,04,13,9.20
2020,11,05,04,14,9.30
2020,11,05,04,15,9.30
2020,11,05,04,16,9.30
2020,11,05,04,17,9.30
2020,11,05,04,18,9.30
2020,11,05,04,19,9.30
2020,11,05,04,20,9.40
2020,11,05,04,21,9.40
2020,11,05,04,22,9.40
2020,11,05,04,23,9.40
2020,11,05,04,24,9.40
2020,11,05,04,25,9.30
2020,11,05,04,26,9.30
2020,11,05,04,27,9.30
2020,11,05,04,28,9.30
2020,11,05,04,29,9.30
2020,11,05,04,30,9.20
2020,11,05,04,31,9.20
2020,11,05,04,32,9.20
2020,11,05,04,33,9.20
2020,11,05,04,34,9.10
2020,11,05,04,35,9.10
2020,11,05,04,36,9.10
2020,11,05,04,37,9.10
2020,11,05,04,38,9.10
2020,11,05,04,39,9.10
2020,11,05,04,40,9.10
2020,11,05,04,41,9.10
2020,11,05,04,42,9.10
2020,11,05,04,43,9.10
2020,11,05,04,44,9.10
2020,11,05,04,45,9.10
2020,11,05,04,46,9.10
2020,11,05,08,43,7.70
2020,11,05,08,44,7.70
2020,11,05,08,45,7.70
2020,11,05,08,46,7.70
2020,11,05,08,47,7.70
2020,11,05,08,48,7.70
2020,11,05,08,49,7.70
2020,11,05,08,50,7.70
2020,11,05,08,51,7.70
2020,11,05,08,52,7.70
2020,11,05,08,53,7.70
2020,11,05,08,54,7.70
2020,11,05,08,55,7.70
2020,11,05,08,56,7.70
2020,11,05,08,57,7.70
2020,11,05,08,58,7.70
2020,11,05,08,59,7.70
2020,11,05,09,00,7.80
2020,11,05,09,01,7.80
2020,11,05,09,02,7.80
2020,11,05,09,03,7.80
2020,11,05,09,04,7.80
2020,11,05,09,05,7.80
2020,11,05,09,06,7.80
2020,11,05,09,07,7.80
2020,11,05,09,08,7.80
2020,11,05,09,09,7.80
2020,11,05,09,10,7.80
2020,11,05,09,11,7.80
2020,11,05,09,12,7.80
2020,11,05,09,13,7.80
2020,11,05,09,14,7.80
2020,11,05,09,15,7.80
2020,11,05,09,16,7.80
2020,11,05,09,17,7.80
2020,11,05,09,18,7.80
2020,11,05,09,19,7.80
2020,11,05,09,20,7.80
2020,11,05,09,21,7.80
2020,11,05,09,22,7.90
2020,11,05,09,23,7.90
2020,11,05,09,24,7.90
2020,11,05,09,25,7.90
2020,11,05,09,26,7.90
2020,11,05,09,27,7.90
2020,11,05,09,28,7.90
2020,11,05,09,29,7.90
2020,11,05,09,30,7.90
2020,11,05,09,31,7.90
2020,11,05,09,32,7.90
2020,11,05,09,33,7.90
2020,11,05,09,34,7.90
2020,11,05,09,35,7.90
2020,11,05,09,36,7.90
2020,11,05,09,37,7.90
2020,11,05,09,38,7.90
2020,11,05,09,39,7.90
2020,11,05,09,40,7.90
2020,11,05,09,41,7.90
2020,11,05,09,42,7.90
2020,11,05,09,43,7.90
2020,11,05,09,44,7.90
2020,11,05,09,45,7.90
2020,11,05,09,46,7.90
2020,11,05,09,47,7.90
2020,11,05,09,48,7.90
2020,11,05,09,49,7.90
2020,11,05,09,50,7.90
2020,11,05,09,51,7.90
2020,11,05,09,52,7.90
2020,11,05,09,53,7.90
2020,11,05,09,54,7.90
2020,11,05,09,55,7.90
2020,11,05,09,56,7.90
2020,11,05,09,57,8.00
2020,11,05,09,58,7.90
2020,11,05,09,59,7.90
2020,11,05,10,00,7.90
2020,11,05,10,01,7.90
2020,11,05,10,02,8.00
2020,11,05,10,03,8.00
2020,11,05,10,04,8.00
2020,11,05,10,05,8.00
2020,11,05,10,06,8.00
2020,11,05,10,07,8.00
2020,11,05,10,08,8.00
2020,11,05,10,09,8.00
2020,11,05,10,10,8.00
2020,11,05,10,11,8.00
2020,11,05,10,12,8.10
2020,11,05,10,13,8.10
2020,11,05,10,14,8.00
2020,11,05,10,15,8.00
2020,11,05,10,16,8.10
2020,11,05,10,17,8.00
2020,11,05,10,18,8.00
2020,11,05,10,19,8.00
2020,11,05,10,20,8.00
2020,11,05,10,21,7.90
2020,11,05,10,22,7.90
2020,11,05,10,23,7.90
2020,11,05,10,24,7.90
2020,11,05,10,25,7.90
2020,11,05,10,26,7.90
2020,11,05,10,27,7.90
2020,11,05,10,28,7.90
2020,11,05,10,29,7.80
2020,11,05,10,30,7.80
2020,11,05,10,31,7.80
2020,11,05,10,32,7.80
2020,11,05,10,33,7.80
2020,11,05,10,34,7.80
2020,11,05,10,35,7.90
2020,11,05,10,36,7.80
2020,11,05,10,37,7.90
2020,11,05,10,38,7.90
2020,11,05,10,39,7.90
2020,11,05,10,40,7.90
2020,11,05,10,41,7.90
2020,11,05,10,42,7.90
2020,11,05,10,43,7.90
2020,11,05,10,44,7.90
2020,11,05,10,45,7.90
2020,11,05,10,46,7.90
2020,11,05,10,47,7.90
2020,11,05,10,48,7.90
2020,11,05,10,49,7.90
2020,11,05,10,50,7.90
2020,11,05,10,51,7.80
2020,11,05,10,52,7.80
2020,11,05,10,53,7.80
2020,11,05,10,54,7.80
2020,11,05,10,55,7.80
2020,11,05,10,56,7.90
2020,11,05,10,57,7.90
2020,11,05,10,58,7.90
2020,11,05,10,59,7.90
2020,11,05,11,00,7.90
2020,11,05,11,01,7.90
2020,11,05,11,02,7.90
2020,11,05,11,03,7.90
2020,11,05,11,04,7.90
2020,11,05,11,05,7.90
2020,11,05,11,06,8.00
2020,11,05,11,07,8.00
2020,11,05,11,08,8.00
2020,11,05,11,09,8.00
2020,11,05,11,10,8.10
2020,11,05,11,11,8.10
2020,11,05,11,12,8.20
2020,11,05,11,13,8.20
2020,11,05,11,14,8.20
2020,11,05,11,15,8.30
2020,11,05,11,16,8.30
2020,11,05,11,17,8.30
2020,11,05,11,18,8.30
2020,11,05,11,19,8.30
2020,11,05,11,20,8.30
2020,11,05,11,21,8.40
2020,11,05,11,22,8.40
2020,11,05,11,23,8.40
2020,11,05,11,24,8.40
2020,11,05,11,25,8.40
2020,11,05,11,26,8.40
2020,11,05,11,27,8.40
2020,11,05,11,28,8.40
2020,11,05,11,29,8.40
2020,11,05,11,30,8.40
2020,11,05,11,31,8.40
2020,11,05,11,32,8.40
2020,11,05,11,33,8.40
2020,11,05,11,34,8.40
2020,11,05,11,35,8.50
2020,11,05,11,36,8.50
2020,11,05,11,37,8.50
2020,11,05,11,38,8.50
2020,11,05,11,39,8.50
2020,11,05,11,40,8.50
2020,11,05,11,41,8.60
2020,11,05,11,42,8.60
2020,11,05,11,43,8.60
2020,11,05,11,44,8.60
2020,11,05,11,45,8.60
2020,11,05,11,46,8.60
2020,11,05,11,47,8.60
2020,11,05,11,48,8.70
2020,11,05,11,49,8.60
2020,11,05,11,50,8.70
2020,11,05,11,51,8.70
2020,11,05,11,52,8.70
2020,11,05,11,53,8.70
2020,11,05,11,54,8.70
2020,11,05,11,55,8.70
2020,11,05,11,56,8.70
2020,11,05,11,57,8.70
2020,11,05,11,58,8.70
2020,11,05,11,59,8.80
2020,11,05,12,00,8.80
2020,11,05,12,01,8.80
2020,11,05,12,02,8.80
2020,11,05,12,03,8.80
2020,11,05,12,04,8.80
2020,11,05,12,05,8.80
2020,11,05,12,06,8.80
2020,11,05,12,07,8.80
2020,11,05,12,08,8.80
2020,11,05,12,09,8.80
2020,11,05,12,10,8.80
2020,11,05,12,11,8.80
2020,11,05,12,12,8.80
2020,11,05,12,13,8.90
2020,11,05,12,14,8.90
2020,11,05,12,15,8.90
2020,11,05,12,16,8.90
2020,11,05,12,17,8.90
2020,11,05,12,18,8.90
2020,11,05,12,19,8.90
2020,11,05,12,20,8.90
2020,11,05,12,21,9.00
2020,11,05,12,22,9.00
2020,11,05,12,23,9.00
2020,11,05,12,24,9.10
2020,11,05,12,25,9.10
2020,11,05,12,26,9.10
2020,11,05,12,27,9.10
2020,11,05,12,28,9.10
2020,11,05,12,29,9.10
2020,11,05,12,30,9.10
2020,11,05,12,31,9.10
2020,11,05,12,32,9.10
2020,11,05,12,33,9.10
2020,11,05,12,34,9.10
2020,11,05,12,35,9.10
2020,11,05,12,36,9.10
2020,11,05,12,37,9.10
2020,11,05,12,38,9.10
2020,11,05,12,39,9.10
2020,11,05,12,40,9.10
2020,11,05,12,41,9.10
2020,11,05,12,42,9.10
2020,11,05,12,43,9.10
2020,11,05,12,44,9.10
2020,11,05,12,45,9.10
2020,11,05,12,46,9.10
2020,11,05,12,47,9.20
2020,11,05,12,48,9.20
2020,11,05,12,49,9.20
2020,11,05,12,50,9.20
2020,11,05,12,51,9.30
2020,11,05,12,52,9.30
2020,11,05,12,53,9.40
2020,11,05,12,54,9.40
2020,11,05,12,55,9.50
2020,11,05,12,56,9.60
2020,11,05,12,57,9.60
2020,11,05,12,58,9.60
2020,11,05,12,59,9.60
2020,11,05,13,00,9.70
2020,11,05,13,01,9.70
2020,11,05,13,02,9.70
2020,11,05,13,03,9.70
2020,11,05,13,04,9.70
2020,11,05,13,05,9.70
2020,11,05,13,06,9.70
2020,11,05,13,07,9.70
2020,11,05,13,08,9.70
2020,11,05,13,09,9.70
2020,11,05,13,10,9.70
2020,11,05,13,11,9.70
2020,11,05,13,12,9.70
2020,11,05,13,13,9.70
2020,11,05,13,14,9.70
2020,11,05,13,15,9.80
2020,11,05,13,16,9.80
2020,11,05,13,17,9.80
2020,11,05,13,18,9.80
2020,11,05,13,19,9.80
2020,11,05,13,20,9.80
2020,11,05,13,21,9.80
2020,11,05,13,22,9.80
2020,11,05,13,23,9.80
2020,11,05,13,24,9.80
2020,11,05,13,25,9.90
2020,11,05,13,26,9.90
2020,11,05,13,27,9.90
2020,11,05,13,28,9.90
2020,11,05,13,29,9.90
2020,11,05,13,30,9.90
2020,11,05,13,31,10.00
2020,11,05,13,32,10.00
2020,11,05,13,33,10.00
2020,11,05,13,34,10.10
2020,11,05,13,35,10.10
2020,11,05,13,36,10.10
2020,11,05,13,37,10.10
2020,11,05,13,38,10.10
2020,11,05,13,39,10.10
2020,11,05,13,40,10.10
2020,11,05,13,41,10.10
2020,11,05,13,42,10.10
2020,11,05,13,43,10.10
2020,11,05,13,44,10.00
2020,11,05,13,45,10.00
2020,11,05,13,46,10.00
2020,11,05,13,47,10.00
2020,11,05,13,48,10.00
2020,11,05,13,49,10.00
2020,11,05,13,50,10.00
2020,11,05,13,51,10.00
2020,11,05,13,52,10.00
2020,11,05,13,53,10.00
2020,11,05,13,54,10.10
2020,11,05,13,55,10.10
2020,11,05,13,56,10.10
2020,11,05,13,57,10.10
2020,11,05,13,58,10.10
2020,11,05,13,59,10.10
2020,11,05,14,00,10.10
2020,11,05,14,01,10.20
2020,11,05,14,02,10.20
2020,11,05,14,03,10.20
2020,11,05,14,04,10.20
2020,11,05,14,05,10.20
2020,11,05,14,06,10.30
2020,11,05,14,07,10.30
2020,11,05,14,08,10.30
2020,11,05,14,09,10.30
2020,11,05,14,10,10.30
2020,11,05,14,11,10.30
2020,11,05,14,12,10.30
2020,11,05,14,13,10.30
2020,11,05,14,14,10.30
2020,11,05,14,15,10.30
2020,11,05,14,16,10.30
2020,11,05,14,17,10.30
2020,11,05,14,18,10.30
2020,11,05,14,19,10.20
2020,11,05,14,20,10.20
2020,11,05,14,21,10.20
2020,11,05,14,22,10.20
2020,11,05,14,23,10.20
2020,11,05,14,24,10.10
2020,11,05,14,25,10.10
2020,11,05,14,26,10.10
2020,11,05,14,27,10.10
2020,11,05,14,28,10.10
2020,11,05,14,29,10.10
2020,11,05,14,30,10.10
2020,11,05,14,31,10.10
2020,11,05,14,32,10.10
2020,11,05,14,33,10.10
2020,11,05,14,34,10.10
2020,11,05,14,35,10.10
2020,11,05,14,36,10.10
2020,11,05,14,37,10.10
2020,11,05,14,38,10.10
2020,11,05,14,39,10.10
2020,11,05,14,40,10.10
2020,11,05,14,41,10.10
2020,11,05,14,42,10.10
2020,11,05,14,43,10.10
2020,11,05,14,44,10.00
2020,11,05,14,45,10.00
2020,11,05,14,46,10.00
2020,11,05,14,47,10.00
2020,11,05,14,48,10.00
2020,11,05,14,49,10.00
2020,11,05,14,50,10.00
2020,11,05,14,51,10.00
2020,11,05,14,52,10.00
2020,11,05,14,53,10.00
2020,11,05,14,54,10.00
2020,11,05,14,55,10.00
2020,11,05,14,56,10.00
2020,11,05,14,57,10.00
2020,11,05,14,58,10.00
2020,11,05,14,59,10.00
2020,11,05,15,00,10.00
2020,11,05,15,01,10.00
2020,11,05,15,02,10.00
2020,11,05,15,03,10.00
2020,11,05,15,04,10.00
2020,11,05,15,05,10.00
2020,11,05,15,06,10.00
2020,11,05,15,07,10.00
2020,11,05,15,08,10.00
2020,11,05,15,09,9.90
2020,11,05,15,10,9.90
2020,11,05,15,11,9.90
2020,11,05,15,12,9.90
2020,11,05,15,13,9.80
2020,11,05,15,14,9.80
2020,11,05,15,15,9.80
2020,11,05,15,16,9.80
2020,11,05,15,17,9.80
2020,11,05,15,18,9.70
2020,11,05,15,19,9.70
2020,11,05,15,20,9.60
2020,11,05,15,21,9.60
2020,11,05,15,22,9.60
2020,11,05,15,23,9.50
2020,11,05,15,24,9.50
2020,11,05,15,25,9.50
2020,11,05,15,26,9.40
2020,11,05,15,27,9.40
2020,11,05,15,28,9.40
2020,11,05,15,29,9.40
2020,11,05,15,30,9.40
2020,11,05,15,31,9.40
2020,11,05,15,32,9.40
2020,11,05,15,33,9.30
2020,11,05,15,34,9.30
2020,11,05,15,35,9.30
2020,11,05,15,36,9.30
2020,11,05,15,37,9.20
2020,11,05,15,38,9.20
2020,11,05,15,39,9.20
2020,11,05,15,40,9.10
2020,11,05,15,41,9.10
2020,11,05,15,42,9.10
2020,11,05,15,43,9.00
2020,11,05,15,44,9.00
2020,11,05,15,45,9.00
2020,11,05,15,46,8.90
2020,11,05,15,47,8.90
2020,11,05,15,48,8.90
2020,11,05,15,49,8.90
2020,11,05,15,50,8.90
2020,11,05,15,51,8.80
2020,11,05,15,52,8.80
2020,11,05,15,53,8.80
2020,11,05,15,54,8.80
2020,11,05,15,55,8.80
2020,11,05,15,56,8.80
2020,11,05,15,57,8.80
2020,11,05,15,58,8.80
2020,11,05,15,59,8.80
2020,11,05,16,00,8.80
2020,11,05,16,01,8.80
2020,11,05,16,02,8.80
2020,11,05,16,03,8.80
2020,11,05,16,04,8.80
2020,11,05,16,05,8.70
2020,11,05,16,06,8.70
2020,11,05,16,07,8.60
2020,11,05,16,08,8.60
2020,11,05,16,09,8.60
2020,11,05,16,10,8.50
2020,11,05,16,11,8.50
2020,11,05,16,12,8.50
2020,11,05,16,13,8.40
2020,11,05,16,14,8.40
2020,11,05,16,15,8.30
2020,11,05,16,16,8.30
2020,11,05,16,17,8.30
2020,11,05,16,18,8.30
2020,11,05,16,19,8.20
2020,11,05,16,20,8.20
2020,11,05,16,21,8.20
2020,11,05,16,22,8.20
2020,11,05,16,23,8.10
2020,11,05,16,24,8.10
2020,11,05,16,25,8.10
2020,11,05,16,26,8.00
2020,11,05,16,27,8.00
2020,11,05,16,28,7.90
2020,11,05,16,29,7.90
2020,11,05,16,30,7.90
2020,11,05,16,31,7.80
2020,11,05,16,32,7.80
2020,11,05,16,33,7.70
2020,11,05,16,34,7.70
2020,11,05,16,35,7.70
2020,11,05,16,36,7.60
2020,11,05,16,37,7.60
2020,11,05,16,38,7.60
2020,11,05,16,39,7.50
2020,11,05,16,40,7.50
2020,11,05,16,41,7.50
2020,11,05,16,42,7.40
2020,11,05,16,43,7.40
2020,11,05,16,44,7.40
2020,11,05,16,45,7.30
2020,11,05,16,46,7.30
2020,11,05,16,47,7.30
2020,11,05,16,48,7.30
2020,11,05,16,49,7.20
2020,11,05,16,50,7.20
2020,11,05,16,51,7.20
2020,11,05,16,52,7.10
2020,11,05,16,53,7.10
2020,11,05,16,54,7.00
2020,11,05,16,55,7.00
2020,11,05,16,56,7.00
2020,11,05,16,57,6.90
2020,11,05,16,58,6.90
2020,11,05,16,59,6.80
2020,11,05,17,00,6.80
2020,11,05,17,01,6.80
2020,11,05,17,02,6.80
2020,11,05,17,03,6.80
2020,11,05,17,04,6.70
2020,11,05,17,05,6.70
2020,11,05,17,06,6.70
2020,11,05,17,07,6.70
2020,11,05,17,08,6.70
2020,11,05,17,09,6.70
2020,11,05,17,10,6.60
2020,11,05,17,11,6.60
2020,11,05,17,12,6.60
2020,11,05,17,13,6.60
2020,11,05,17,14,6.50
2020,11,05,17,15,6.50
2020,11,05,17,16,6.50
2020,11,05,17,17,6.50
2020,11,05,17,18,6.50
2020,11,05,17,19,6.50
2020,11,05,17,20,6.40
2020,11,05,17,21,6.40
2020,11,05,17,22,6.40
2020,11,05,17,23,6.40
2020,11,05,17,24,6.40
2020,11,05,17,25,6.40
2020,11,05,17,26,6.40
2020,11,05,17,27,6.40
2020,11,05,17,28,6.40
2020,11,05,17,29,6.40
2020,11,05,17,30,6.40
2020,11,05,17,31,6.40
2020,11,05,17,32,6.40
2020,11,05,17,33,6.30
2020,11,05,17,34,6.30
2020,11,05,17,35,6.30
2020,11,05,17,36,6.30
2020,11,05,17,37,6.30
2020,11,05,17,38,6.30
2020,11,05,17,39,6.30
2020,11,05,17,40,6.30
2020,11,05,17,41,6.30
2020,11,05,17,42,6.30
2020,11,05,17,43,6.20
2020,11,05,17,44,6.20
2020,11,05,17,45,6.20
2020,11,05,17,46,6.20
2020,11,05,17,47,6.20
2020,11,05,17,48,6.20
2020,11,05,17,49,6.20
2020,11,05,17,50,6.20
2020,11,05,17,51,6.20
2020,11,05,17,52,6.10
2020,11,05,17,53,6.10
2020,11,05,17,54,6.10
2020,11,05,17,55,6.10
2020,11,05,17,56,6.10
2020,11,05,17,57,6.10
2020,11,05,17,58,6.10
2020,11,05,17,59,6.00
2020,11,05,18,00,6.00
2020,11,05,18,01,6.00
2020,11,05,18,02,6.00
2020,11,05,18,03,6.00
2020,11,05,18,04,6.00
2020,11,05,18,05,5.90
2020,11,05,18,06,5.90
2020,11,05,18,07,5.90
2020,11,05,18,08,5.90
2020,11,05,18,09,5.90
2020,11,05,18,10,5.90
2020,11,05,18,11,5.80
2020,11,05,18,12,5.80
2020,11,05,18,13,5.80
2020,11,05,18,14,5.80
2020,11,05,18,15,5.80
2020,11,05,18,16,5.80
2020,11,05,18,17,5.80
2020,11,05,18,18,5.80
2020,11,05,18,19,5.80
2020,11,05,18,20,5.80
2020,11,05,18,21,5.70
2020,11,05,18,22,5.70
2020,11,05,18,23,5.70
2020,11,05,18,24,5.70
2020,11,05,18,25,5.70
2020,11,05,18,26,5.70
2020,11,05,18,27,5.70
2020,11,05,18,28,5.70
2020,11,05,18,29,5.60
2020,11,05,18,30,5.60
2020,11,05,18,31,5.60
2020,11,05,18,32,5.60
2020,11,05,18,33,5.60
2020,11,05,18,34,5.60
2020,11,05,18,35,5.60
2020,11,05,18,36,5.60
2020,11,05,18,37,5.60
2020,11,05,18,38,5.60
2020,11,05,18,39,5.60
2020,11,05,18,40,5.60
2020,11,05,18,41,5.50
2020,11,05,18,42,5.50
2020,11,05,18,43,5.50
2020,11,05,18,44,5.50
2020,11,05,18,45,5.50
2020,11,05,18,46,5.50
2020,11,05,18,47,5.40
2020,11,05,18,48,5.40
2020,11,05,18,49,5.40
2020,11,05,18,50,5.40
2020,11,05,18,51,5.40
2020,11,05,18,52,5.40
2020,11,05,18,53,5.40
2020,11,05,18,54,5.40
2020,11,05,18,55,5.40
2020,11,05,18,56,5.40
2020,11,05,18,57,5.30
2020,11,05,18,58,5.30
2020,11,05,18,59,5.30
2020,11,05,19,00,5.30
2020,11,05,19,01,5.30
2020,11,05,19,02,5.30
2020,11,05,19,03,5.30
2020,11,05,19,04,5.30
2020,11,05,19,05,5.30
2020,11,05,19,06,5.30
2020,11,05,19,07,5.30
2020,11,05,19,08,5.20
2020,11,05,19,09,5.20
2020,11,05,19,10,5.20
2020,11,05,19,11,5.20
2020,11,05,19,12,5.20
2020,11,05,19,13,5.20
2020,11,05,19,14,5.20
2020,11,05,19,15,5.20
2020,11,05,19,16,5.20
2020,11,05,19,17,5.20
2020,11,05,19,18,5.20
2020,11,05,19,19,5.10
2020,11,05,19,20,5.10
2020,11,05,19,21,5.10
2020,11,05,19,22,5.10
2020,11,05,19,23,5.10
2020,11,05,19,24,5.10
2020,11,05,19,25,5.10
2020,11,05,19,26,5.10
2020,11,05,19,27,5.10
2020,11,05,19,28,5.10
2020,11,05,19,29,5.10
2020,11,05,19,30,5.10
2020,11,05,19,31,5.10
2020,11,05,19,32,5.10
2020,11,05,19,33,5.10
2020,11,05,19,34,5.10
2020,11,05,19,35,5.10
2020,11,05,19,36,5.00
2020,11,05,19,37,5.00
2020,11,05,19,38,5.00
2020,11,05,19,39,5.00
2020,11,05,19,40,5.00
2020,11,05,19,41,5.00
2020,11,05,19,42,4.90
2020,11,05,19,43,4.90
2020,11,05,19,44,4.90
2020,11,05,19,45,4.90
2020,11,05,19,46,4.90
2020,11,05,19,47,4.90
2020,11,05,19,48,4.90
2020,11,05,19,49,4.90
2020,11,05,19,50,4.90
2020,11,05,19,51,4.90
2020,11,05,19,52,4.80
2020,11,05,19,53,4.80
2020,11,05,19,54,4.80
2020,11,05,19,55,4.80
2020,11,05,19,56,4.80
2020,11,05,19,57,4.80
2020,11,05,19,58,4.80
2020,11,05,19,59,4.80
2020,11,05,20,00,4.80
2020,11,05,20,01,4.80
2020,11,05,20,02,4.70
2020,11,05,20,03,4.70
2020,11,05,20,04,4.70
2020,11,05,20,05,4.70
2020,11,05,20,06,4.70
2020,11,05,20,07,4.70
2020,11,05,20,08,4.70
2020,11,05,20,09,4.60
2020,11,05,20,10,4.60
2020,11,05,20,11,4.60
2020,11,05,20,12,4.60
2020,11,05,20,13,4.60
2020,11,05,20,14,4.60
2020,11,05,20,15,4.60
2020,11,05,20,16,4.60
2020,11,05,20,17,4.60
2020,11,05,20,18,4.60
2020,11,05,20,19,4.60
2020,11,05,20,20,4.60
2020,11,05,20,21,4.50
2020,11,05,20,22,4.50
2020,11,05,20,23,4.50
2020,11,05,20,24,4.50
2020,11,05,20,25,4.50
2020,11,05,20,26,4.50
2020,11,05,20,27,4.50
2020,11,05,20,28,4.50
2020,11,05,20,29,4.40
2020,11,05,20,30,4.40
2020,11,05,20,31,4.40
2020,11,05,20,32,4.40
2020,11,05,20,33,4.40
2020,11,05,20,34,4.40
2020,11,05,20,35,4.40
2020,11,05,20,36,4.40
2020,11,05,20,37,4.40
2020,11,05,20,38,4.40
2020,11,05,20,39,4.40
2020,11,05,20,40,4.40
2020,11,05,20,41,4.40
2020,11,05,20,42,4.40
2020,11,05,20,43,4.40
2020,11,05,20,44,4.40
2020,11,05,20,45,4.50
2020,11,05,20,46,4.40
2020,11,05,20,47,4.40
2020,11,05,20,48,4.50
2020,11,05,20,49,4.50
2020,11,05,20,50,4.50
2020,11,05,20,51,4.50
2020,11,05,20,52,4.50
2020,11,05,20,53,4.50
2020,11,05,20,54,4.50
2020,11,05,20,55,4.50
2020,11,05,20,56,4.50
2020,11,05,20,57,4.50
2020,11,05,20,58,4.50
2020,11,05,20,59,4.40
2020,11,05,21,00,4.40
2020,11,05,21,01,4.40
2020,11,05,21,02,4.40
2020,11,05,21,03,4.40
2020,11,05,21,04,4.40
2020,11,05,21,05,4.40
2020,11,05,21,06,4.40
2020,11,05,21,07,4.40
2020,11,05,21,08,4.50
2020,11,05,21,09,4.50
2020,11,05,21,10,4.50
2020,11,05,21,11,4.50
2020,11,05,21,12,4.50
2020,11,05,21,13,4.50
2020,11,05,21,14,4.50
2020,11,05,21,15,4.50
2020,11,05,21,16,4.60
2020,11,05,21,17,4.50
2020,11,05,21,18,4.60
2020,11,05,21,19,4.60
2020,11,05,21,20,4.60
2020,11,05,21,21,4.60
2020,11,05,21,22,4.60
2020,11,05,21,23,4.60
2020,11,05,21,24,4.60
2020,11,05,21,25,4.60
2020,11,05,21,26,4.60
2020,11,05,21,27,4.70
2020,11,05,21,28,4.90
2020,11,05,21,29,5.10
2020,11,05,21,30,5.40
2020,11,05,21,31,5.60
2020,11,05,21,32,5.70
2020,11,05,21,33,5.90
2020,11,05,21,34,6.10
2020,11,05,21,35,6.20
2020,11,05,21,36,6.30
2020,11,05,21,37,6.30
2020,11,05,21,38,6.30
2020,11,05,21,39,6.20
2020,11,05,21,40,6.20
2020,11,05,21,41,6.10
2020,11,05,21,42,6.10
2020,11,05,21,43,6.10
2020,11,05,21,44,6.20
2020,11,05,21,45,6.30
2020,11,05,21,46,6.30
2020,11,05,21,47,6.30
2020,11,05,21,48,6.30
2020,11,05,21,49,6.40
2020,11,05,21,50,6.40
2020,11,05,21,51,6.40
2020,11,05,21,52,6.50
2020,11,05,21,53,6.50
2020,11,05,21,54,6.60
2020,11,05,21,55,6.60